Orbital Elements at Epoch 2459200.5 (2020-Dec-17.0) TDB
Reference: JPL 21 (heliocentric ecliptic J2000)
Element | Value | Uncertainty (1-sigma) | Units |
e | .2709350534076591 | 5.0951e-08 | |
a | 2.638941118045645 | 1.4875e-08 | au |
q | 1.92395946528828 | 1.3423e-07 | au |
i | 12.34403031827318 | 4.4816e-06 | deg |
node | 297.0952115266414 | 2.5686e-05 | deg |
peri | 29.35194116548351 | 2.7805e-05 | deg |
M | 305.0883841314661 | 1.4229e-05 | deg |
tp | 2459439.338700696429 (2021-Aug-12.83870070) | 6.2926e-05 | TDB |
period | 1565.824113727909 4.29 | 1.3239e-05 3.625e-08 | d yr |
n | .2299108800559426 | 1.944e-09 | deg/d |
Q | 3.353922770803009 | 1.8906e-08 | au |
|
| | Orbit Determination Parameters
Additional Information
|